Weather History for Bullhead City, AZ

Change the Weather History Date:

Tuesday, March 26, 2013

  Actual Average Record
Temperature  
Mean Temperature 72 °F -  
Max Temperature 86 °F 78 °F 94 °F (1988)
Min Temperature 59 °F 56 °F 48 °F (1991)
Cooling Degree Days 8    
Growing Degree Days 22 (Base 50)    
Moisture  
Dew Point 18 °F    
Average Humidity 14    
Maximum Humidity 25    
Minimum Humidity 5    
Precipitation  
Precipitation 0.00 in - - ()
Sea Level Pressure  
Sea Level Pressure 29.82 in    
Wind  
Wind Speed 7 mph (SSE)    
Max Wind Speed 22 mph    
Max Gust Speed 28 mph    
Visibility 10 miles    
Events      
Averages and records for this station are not official NWS values.
T = Trace of Precipitation, MM = Missing Value Source: NWS Daily Summary

Daily Weather History Graph

Daily Weather History Graph

Search for Another Location

Airport:

Trip Planner

Search our weather history database for the weather conditions in past years. The results will help you decide how hot, cold, wet, or windy it might be!

Date:

Astronomy

Mar. 26, 2013 Rise Set
Actual Time 6:32 AM MST 6:55 PM MST
Civil Twilight 6:07 AM MST 7:20 PM MST
Nautical Twilight 5:37 AM MST 7:50 PM MST
Astronomical Twilight 5:07 AM MST 8:20 PM MST
Moon 6:35 PM MST (3/26) 5:51 AM MST (3/26)
Length of Visible Light 13h 12m
Length of Day
12h 22m
Full, 100% of the Moon is Illuminated
Mar 26
Full
Mar 27
Full
Apr 2
Last Quarter
Apr 10
New
Apr 18
First Quarter

Hourly Weather History & Observations

Time (MST) Temp. Dew Point Humidity Pressure Visibility Wind Dir Wind Speed Gust Speed Precip Events Conditions
12:15 AM 66.2 °F 17.6 °F 15% 29.87 in 10.0 mi SSE 6.9 mph - N/A   Clear
12:35 AM 66.2 °F 19.4 °F 17% 29.87 in 10.0 mi SE 8.1 mph - N/A   Clear
12:55 AM 66.2 °F 17.6 °F 15% 29.87 in 10.0 mi SSE 8.1 mph - N/A   Clear
1:15 AM 66.2 °F 17.6 °F 15% 29.87 in 10.0 mi South 3.5 mph - N/A   Clear
1:35 AM 64.4 °F 19.4 °F 18% 29.87 in 10.0 mi Calm Calm - N/A   Unknown
1:55 AM 62.6 °F 19.4 °F 19% 29.87 in 10.0 mi SE 4.6 mph - N/A   Clear
2:15 AM 62.6 °F 21.2 °F 20% 29.86 in 10.0 mi SE 4.6 mph - N/A   Clear
2:35 AM 62.6 °F 21.2 °F 20% 29.86 in 10.0 mi South 4.6 mph - N/A   Clear
2:55 AM 62.6 °F 19.4 °F 19% 29.85 in 10.0 mi South 4.6 mph - N/A   Clear
3:15 AM 60.8 °F 21.2 °F 22% 29.85 in 10.0 mi SSE 4.6 mph - N/A   Clear
3:35 AM 62.6 °F 19.4 °F 19% 29.84 in 10.0 mi Calm Calm - N/A   Clear
3:55 AM 62.6 °F 19.4 °F 19% 29.84 in 10.0 mi SE 5.8 mph - N/A   Clear
4:15 AM 62.6 °F 19.4 °F 19% 29.84 in 10.0 mi SE 6.9 mph - N/A   Clear
4:35 AM 60.8 °F 19.4 °F 20% 29.84 in 10.0 mi SE 8.1 mph - N/A   Clear
4:55 AM 62.6 °F 19.4 °F 19% 29.84 in 10.0 mi Calm Calm - N/A   Clear
5:15 AM 62.6 °F 19.4 °F 19% 29.85 in 10.0 mi ESE 4.6 mph - N/A   Clear
5:35 AM 62.6 °F 19.4 °F 19% 29.85 in 10.0 mi SE 3.5 mph - N/A   Clear
5:55 AM 60.8 °F 19.4 °F 20% 29.86 in 10.0 mi Calm Calm - N/A   Clear
6:15 AM 59.0 °F 19.4 °F 22% 29.86 in 10.0 mi Calm Calm - N/A   Clear
6:35 AM 59.0 °F 23.0 °F 25% 29.86 in 10.0 mi Calm Calm - N/A   Clear
6:55 AM 59.0 °F 19.4 °F 22% 29.87 in 10.0 mi Calm Calm - N/A   Clear
7:15 AM 59.0 °F 21.2 °F 23% 29.87 in 10.0 mi SE 5.8 mph - N/A   Clear
7:35 AM 62.6 °F 23.0 °F 22% 29.87 in 10.0 mi Calm Calm - N/A   Clear
7:55 AM 62.6 °F 23.0 °F 22% 29.87 in 10.0 mi SE 3.5 mph - N/A   Clear
8:15 AM 62.6 °F 23.0 °F 22% 29.88 in 10.0 mi SW 3.5 mph - N/A   Clear
8:35 AM 64.4 °F 24.8 °F 22% 29.88 in 10.0 mi SSE 6.9 mph - N/A   Clear
8:55 AM 68.0 °F 19.4 °F 16% 29.88 in 10.0 mi SSE 5.8 mph - N/A   Clear
9:15 AM 68.0 °F 19.4 °F 16% 29.89 in 10.0 mi South 5.8 mph - N/A   Clear
9:35 AM 68.0 °F 19.4 °F 16% 29.89 in 10.0 mi South 6.9 mph - N/A   Clear
9:55 AM 71.6 °F 19.4 °F 14% 29.88 in 10.0 mi South 4.6 mph - N/A   Clear
10:15 AM 71.6 °F 19.4 °F 14% 29.88 in 10.0 mi SW 4.6 mph - N/A   Clear
10:35 AM 73.4 °F 21.2 °F 14% 29.88 in 10.0 mi SW 5.8 mph - N/A   Clear
10:55 AM 75.2 °F 21.2 °F 13% 29.88 in 10.0 mi SW 9.2 mph - N/A   Clear
11:15 AM 75.2 °F 19.4 °F 12% 29.87 in 10.0 mi SW 11.5 mph - N/A   Clear
11:35 AM 77.0 °F 19.4 °F 12% 29.86 in 10.0 mi SW 13.8 mph - N/A   Clear
11:55 AM 80.6 °F 19.4 °F 10% 29.85 in 10.0 mi SSW 12.7 mph 18.4 mph N/A   Clear
12:15 PM 80.6 °F 21.2 °F 11% 29.85 in 10.0 mi SW 17.3 mph 23.0 mph N/A   Clear
12:35 PM 80.6 °F 23.0 °F 12% 29.84 in 10.0 mi South 17.3 mph 21.9 mph N/A   Clear
12:55 PM 82.4 °F 23.0 °F 11% 29.83 in 10.0 mi South 18.4 mph - N/A   Clear
1:15 PM 82.4 °F 21.2 °F 10% 29.82 in 10.0 mi South 15.0 mph 20.7 mph N/A   Clear
1:35 PM 82.4 °F 21.2 °F 10% 29.82 in 10.0 mi South 12.7 mph 25.3 mph N/A   Clear
1:55 PM 84.2 °F 21.2 °F 10% 29.80 in 10.0 mi SSE 17.3 mph 23.0 mph N/A   Clear
2:15 PM 84.2 °F 21.2 °F 10% 29.79 in 10.0 mi SSE 13.8 mph 19.6 mph N/A   Clear
2:35 PM 86.0 °F 21.2 °F 9% 29.78 in 10.0 mi South 17.3 mph 23.0 mph N/A   Clear
2:55 PM 84.2 °F 19.4 °F 9% 29.77 in 10.0 mi South 20.7 mph 27.6 mph N/A   Clear
3:15 PM 86.0 °F 21.2 °F 9% 29.76 in 10.0 mi SSE 18.4 mph 27.6 mph N/A   Clear
3:35 PM 86.0 °F 8.6 °F 5% 29.75 in 10.0 mi South 21.9 mph 26.5 mph N/A   Clear
3:55 PM 86.0 °F 10.4 °F 6% 29.75 in 10.0 mi South 20.7 mph 26.5 mph N/A   Clear
4:15 PM 86.0 °F 10.4 °F 6% 29.74 in 10.0 mi South 17.3 mph 23.0 mph N/A   Clear
4:35 PM 86.0 °F 10.4 °F 6% 29.74 in 10.0 mi South 13.8 mph 19.6 mph N/A   Clear
4:55 PM 86.0 °F 8.6 °F 5% 29.73 in 10.0 mi South 13.8 mph 20.7 mph N/A   Clear
5:15 PM 86.0 °F 10.4 °F 6% 29.73 in 10.0 mi South 13.8 mph 21.9 mph N/A   Clear
5:35 PM 84.2 °F 10.4 °F 6% 29.73 in 10.0 mi South 12.7 mph 24.2 mph N/A   Clear
5:55 PM 84.2 °F 10.4 °F 6% 29.73 in 10.0 mi South 13.8 mph - N/A   Clear
6:15 PM 84.2 °F 10.4 °F 6% 29.73 in 10.0 mi SSE 15.0 mph - N/A   Clear
6:35 PM 84.2 °F 10.4 °F 6% 29.73 in 10.0 mi SSE 13.8 mph - N/A   Clear
6:55 PM 82.4 °F 14.0 °F 8% 29.73 in 10.0 mi South 11.5 mph - N/A   Clear
7:15 PM 80.6 °F 14.0 °F 8% 29.73 in 10.0 mi SSE 12.7 mph - N/A   Clear
7:35 PM 80.6 °F 14.0 °F 8% 29.73 in 10.0 mi SSE 11.5 mph - N/A   Clear
7:55 PM 80.6 °F 14.0 °F 8% 29.74 in 10.0 mi South 11.5 mph - N/A   Clear
8:15 PM 77.0 °F 15.8 °F 10% 29.75 in 10.0 mi Calm Calm - N/A   Clear
8:35 PM 75.2 °F 15.8 °F 11% 29.75 in 10.0 mi South 3.5 mph - N/A   Clear
8:55 PM 71.6 °F 15.8 °F 12% 29.76 in 10.0 mi ESE 6.9 mph - N/A   Clear
9:15 PM 73.4 °F 15.8 °F 11% 29.76 in 10.0 mi Calm Calm - N/A   Clear
9:35 PM 73.4 °F 15.8 °F 11% 29.77 in 10.0 mi ENE 5.8 mph - N/A   Clear
9:55 PM 71.6 °F 15.8 °F 12% 29.78 in 10.0 mi Calm Calm - N/A   Clear
10:15 PM 69.8 °F 15.8 °F 13% 29.79 in 10.0 mi Calm Calm - N/A   Clear
10:35 PM 68.0 °F 15.8 °F 13% 29.79 in 10.0 mi ESE 4.6 mph - N/A   Clear
10:55 PM 66.2 °F 17.6 °F 15% 29.79 in 10.0 mi East 3.5 mph - N/A   Clear
11:15 PM 66.2 °F 17.6 °F 15% 29.79 in 10.0 mi ESE 9.2 mph - N/A   Clear
11:35 PM 69.8 °F 17.6 °F 14% 29.79 in 10.0 mi SSE 9.2 mph - N/A   Clear
11:55 PM 71.6 °F 15.8 °F 12% 29.80 in 10.0 mi ESE 3.5 mph - N/A   Clear